| time (UTC) | temp F | wind direction | speed MPH | gust MPH | rain 1hr in | rain 24hr in | rain mn in | humidity % | barometer mb |
| 20260504231556 | 53 | 296 | 10.0 | 18.0 | 0.00 | 0.00 | 0.00 | 39 | 1006.8 |
| 20260504231058 | 53 | 313 | 7.0 | 18.0 | 0.00 | 0.00 | 0.00 | 39 | 1006.7 |
| 20260504230558 | 53 | 266 | 8.0 | 25.0 | 0.00 | 0.00 | 0.00 | 40 | 1006.9 |
| 20260504230057 | 53 | 317 | 10.0 | 25.0 | 0.00 | 0.00 | 0.00 | 39 | 1006.7 |
| 20260504225558 | 53 | 269 | 10.0 | 20.0 | 0.00 | 0.00 | 0.00 | 40 | 1006.6 |
| 20260504225057 | 53 | 288 | 7.0 | 18.0 | 0.00 | 0.00 | 0.00 | 41 | 1006.8 |
| 20260504224557 | 52 | 281 | 8.0 | 20.0 | 0.00 | 0.00 | 0.00 | 41 | 1006.7 |
| 20260504224100 | 52 | 327 | 10.0 | 20.0 | 0.00 | 0.00 | 0.00 | 42 | 1006.6 |
| 20260504223555 | 53 | 317 | 7.0 | 21.0 | 0.00 | 0.00 | 0.00 | 41 | 1006.7 |
| 20260504223057 | 53 | 281 | 12.0 | 22.0 | 0.00 | 0.00 | 0.00 | 40 | 1006.7 |
| 20260504222555 | 53 | 294 | 10.0 | 24.0 | 0.00 | 0.00 | 0.00 | 41 | 1006.4 |
| 20260504222101 | 53 | 339 | 11.0 | 24.0 | 0.00 | 0.00 | 0.00 | 41 | 1006.4 |
| 20260504221555 | 53 | 277 | 13.0 | 27.0 | 0.00 | 0.00 | 0.00 | 41 | 1006.5 |
| 20260504221058 | 53 | 288 | 12.0 | 27.0 | 0.00 | 0.00 | 0.00 | 40 | 1006.5 |
| 20260504220558 | 53 | 293 | 12.0 | 21.0 | 0.00 | 0.00 | 0.00 | 41 | 1006.4 |
| 20260504220104 | 53 | 313 | 13.0 | 21.0 | 0.00 | 0.00 | 0.00 | 41 | 1006.6 |
| 20260504215559 | 54 | 298 | 8.0 | 30.0 | 0.00 | 0.00 | 0.00 | 42 | 1006.5 |
| 20260504215057 | 54 | 286 | 10.0 | 30.0 | 0.00 | 0.00 | 0.00 | 42 | 1006.6 |
| 20260504214600 | 54 | 298 | 15.0 | 30.0 | 0.00 | 0.00 | 0.00 | 40 | 1006.4 |
| 20260504214058 | 54 | 341 | 12.0 | 29.0 | 0.00 | 0.00 | 0.00 | 41 | 1006.3 |
| 20260504213558 | 55 | 323 | 13.0 | 29.0 | 0.00 | 0.00 | 0.00 | 40 | 1006.3 |
| 20260504213111 | 55 | 312 | 10.0 | 24.0 | 0.00 | 0.00 | 0.00 | 42 | 1006.2 |
| 20260504212555 | 55 | 325 | 12.0 | 26.0 | 0.00 | 0.00 | 0.00 | 41 | 1006.1 |
| 20260504212055 | 56 | 252 | 14.0 | 26.0 | 0.00 | 0.00 | 0.00 | 40 | 1006.0 |
| 20260504211556 | 56 | 265 | 11.0 | 27.0 | 0.00 | 0.00 | 0.00 | 41 | 1006.0 |
| 20260504211054 | 56 | 273 | 13.0 | 27.0 | 0.00 | 0.00 | 0.00 | 40 | 1005.9 |
| 20260504210600 | 56 | 295 | 7.0 | 23.0 | 0.00 | 0.00 | 0.00 | 41 | 1005.8 |
| 20260504210104 | 56 | 309 | 12.0 | 24.0 | 0.00 | 0.00 | 0.00 | 40 | 1005.7 |
| 20260504205559 | 56 | 273 | 12.0 | 25.0 | 0.00 | 0.00 | 0.00 | 41 | 1005.6 |
| 20260504205059 | 56 | 288 | 12.0 | 25.0 | 0.00 | 0.00 | 0.00 | 42 | 1005.8 |
| 20260504204604 | 56 | 284 | 12.0 | 28.0 | 0.00 | 0.00 | 0.00 | 41 | 1005.7 |
| 20260504204100 | 56 | 240 | 13.0 | 28.0 | 0.00 | 0.00 | 0.00 | 39 | 1005.8 |
| 20260504203558 | 56 | 286 | 13.0 | 26.0 | 0.00 | 0.00 | 0.00 | 40 | 1005.6 |
| 20260504203058 | 56 | 301 | 9.0 | 20.0 | 0.00 | 0.00 | 0.00 | 40 | 1005.9 |
| 20260504202555 | 56 | 352 | 11.0 | 23.0 | 0.00 | 0.00 | 0.00 | 41 | 1005.7 |
| 20260504202057 | 56 | 273 | 9.0 | 25.0 | 0.00 | 0.00 | 0.00 | 43 | 1005.6 |
| 20260504201557 | 56 | 319 | 12.0 | 25.0 | 0.00 | 0.00 | 0.00 | 42 | 1005.6 |
| 20260504201055 | 56 | 304 | 9.0 | 25.0 | 0.00 | 0.00 | 0.00 | 42 | 1005.5 |
| 20260504200555 | 56 | 314 | 11.0 | 25.0 | 0.00 | 0.00 | 0.00 | 44 | 1005.6 |
| 20260504200059 | 56 | 321 | 11.0 | 24.0 | 0.00 | 0.00 | 0.00 | 42 | 1005.3 |
| 20260504195558 | 56 | 355 | 10.0 | 29.0 | 0.00 | 0.00 | 0.00 | 42 | 1005.4 |
| 20260504195058 | 56 | 23 | 12.0 | 29.0 | 0.00 | 0.00 | 0.00 | 43 | 1005.3 |
| 20260504194559 | 56 | 338 | 9.0 | 21.0 | 0.00 | 0.00 | 0.00 | 43 | 1005.3 |
| 20260504194058 | 56 | 305 | 10.0 | 25.0 | 0.00 | 0.00 | 0.00 | 43 | 1005.3 |
| 20260504193558 | 56 | 299 | 10.0 | 28.0 | 0.00 | 0.00 | 0.00 | 42 | 1005.3 |
| 20260504193114 | 57 | 307 | 10.0 | 31.0 | 0.00 | 0.00 | 0.00 | 43 | 1005.3 |
| 20260504192558 | 57 | 296 | 13.0 | 31.0 | 0.00 | 0.00 | 0.00 | 41 | 1005.1 |
| 20260504192100 | 57 | 290 | 10.0 | 25.0 | 0.00 | 0.00 | 0.00 | 41 | 1005.2 |
| 20260504191559 | 58 | 5 | 10.0 | 25.0 | 0.00 | 0.00 | 0.00 | 42 | 1005.1 |
| 20260504191058 | 58 | 282 | 8.0 | 22.0 | 0.00 | 0.00 | 0.00 | 43 | 1005.1 |
| 20260504190555 | 58 | 317 | 7.0 | 22.0 | 0.00 | 0.00 | 0.00 | 42 | 1004.9 |
| 20260504190107 | 58 | 292 | 12.0 | 27.0 | 0.00 | 0.00 | 0.00 | 41 | 1004.8 |
| 20260504185554 | 58 | 271 | 14.0 | 27.0 | 0.00 | 0.00 | 0.00 | 41 | 1004.8 |
| 20260504185054 | 58 | 292 | 12.0 | 23.0 | 0.00 | 0.00 | 0.00 | 44 | 1004.8 |
| 20260504184556 | 58 | 310 | 10.0 | 23.0 | 0.00 | 0.00 | 0.00 | 43 | 1004.8 |
| 20260504184101 | 58 | 313 | 13.0 | 23.0 | 0.00 | 0.00 | 0.00 | 42 | 1005.0 |
| 20260504183555 | 58 | 326 | 11.0 | 21.0 | 0.00 | 0.00 | 0.00 | 43 | 1005.0 |
| 20260504183102 | 58 | 311 | 12.0 | 23.0 | 0.00 | 0.00 | 0.00 | 42 | 1004.9 |
| 20260504182558 | 57 | 307 | 12.0 | 23.0 | 0.00 | 0.00 | 0.00 | 43 | 1004.9 |
| 20260504182058 | 57 | 285 | 11.0 | 23.0 | 0.00 | 0.00 | 0.00 | 41 | 1004.8 |
| 20260504181559 | 57 | 312 | 9.0 | 23.0 | 0.00 | 0.00 | 0.00 | 41 | 1004.8 |
| 20260504181058 | 57 | 321 | 10.0 | 23.0 | 0.00 | 0.00 | 0.00 | 40 | 1004.8 |
| 20260504180557 | 58 | 298 | 13.0 | 23.0 | 0.00 | 0.00 | 0.00 | 40 | 1004.7 |
| 20260504180138 | 58 | 317 | 10.0 | 19.0 | 0.00 | 0.00 | 0.00 | 39 | 1004.6 |
| 20260504175555 | 59 | 338 | 10.0 | 21.0 | 0.00 | 0.00 | 0.00 | 39 | 1004.4 |
| 20260504175055 | 59 | 319 | 10.0 | 25.0 | 0.00 | 0.00 | 0.00 | 38 | 1004.4 |
| 20260504174555 | 59 | 285 | 12.0 | 25.0 | 0.00 | 0.00 | 0.00 | 38 | 1004.4 |
| 20260504174055 | 59 | 323 | 11.0 | 23.0 | 0.00 | 0.00 | 0.00 | 39 | 1004.3 |
| 20260504173555 | 59 | 302 | 11.0 | 22.0 | 0.00 | 0.00 | 0.00 | 39 | 1004.2 |
| 20260504173055 | 59 | 317 | 8.0 | 20.0 | 0.00 | 0.00 | 0.00 | 38 | 1004.2 |
| 20260504172558 | 60 | 337 | 11.0 | 21.0 | 0.00 | 0.00 | 0.00 | 38 | 1004.0 |
| 20260504172058 | 60 | 309 | 10.0 | 21.0 | 0.00 | 0.00 | 0.00 | 38 | 1003.9 |
| 20260504171601 | 60 | 309 | 10.0 | 22.0 | 0.00 | 0.00 | 0.00 | 38 | 1003.9 |
| 20260504171058 | 60 | 334 | 11.0 | 22.0 | 0.00 | 0.00 | 0.00 | 39 | 1003.9 |
| 20260504170558 | 60 | 267 | 11.0 | 24.0 | 0.00 | 0.00 | 0.00 | 38 | 1003.9 |
| 20260504151059 | 57 | 305 | 10.0 | 19.0 | 0.00 | 0.00 | 0.00 | 47 | 1002.8 |
| 20260504150558 | 56 | 307 | 6.0 | 20.0 | 0.00 | 0.00 | 0.00 | 50 | 1002.6 |
| 20260504141057 | 56 | 297 | 6.0 | 17.0 | 0.00 | 0.00 | 0.00 | 49 | 1002.3 |
| 20260504140557 | 56 | 292 | 5.0 | 16.0 | 0.00 | 0.00 | 0.00 | 49 | 1002.2 |
| 20260504130559 | 51 | 345 | 3.0 | 8.0 | 0.00 | 0.00 | 0.00 | 69 | 1001.6 |
| 20260504120109 | 51 | 293 | 6.0 | 12.0 | 0.00 | 0.00 | 0.00 | 67 | 1000.8 |
| 20260504110556 | 52 | 246 | 4.0 | 9.0 | 0.00 | 0.00 | 0.00 | 58 | 1000.1 |
| 20260504100557 | 53 | 260 | 5.0 | 15.0 | 0.00 | 0.00 | 0.00 | 55 | 999.6 |
| 20260504100116 | 52 | 253 | 6.0 | 15.0 | 0.00 | 0.00 | 0.00 | 55 | 999.5 |
| 20260504081558 | 49 | 212 | 5.0 | 10.0 | 0.00 | 0.00 | 0.00 | 55 | 1000.5 |
| 20260504081056 | 49 | 219 | 5.0 | 11.0 | 0.00 | 0.00 | 0.00 | 55 | 1000.7 |
| 20260504080556 | 49 | 217 | 5.0 | 11.0 | 0.00 | 0.00 | 0.00 | 55 | 1000.6 |
| 20260504060106 | 49 | 194 | 5.0 | 8.0 | 0.00 | 0.00 | 0.00 | 52 | 1002.8 |
| 20260504050559 | 50 | 226 | 3.0 | 7.0 | 0.00 | 0.00 | 0.00 | 51 | 1003.5 |
| 20260504050119 | 51 | 217 | 4.0 | 7.0 | 0.00 | 0.00 | 0.00 | 50 | 1003.5 |
| 20260504045559 | 51 | 222 | 4.0 | 9.0 | 0.00 | 0.00 | 0.00 | 50 | 1003.5 |
| 20260504045059 | 51 | 209 | 4.0 | 9.0 | 0.00 | 0.00 | 0.00 | 49 | 1003.6 |
| 20260504044559 | 51 | 214 | 5.0 | 9.0 | 0.00 | 0.00 | 0.00 | 49 | 1003.7 |
| 20260504044100 | 51 | 217 | 4.0 | 8.0 | 0.00 | 0.00 | 0.00 | 48 | 1003.8 |
| 20260504043602 | 51 | 221 | 3.0 | 9.0 | 0.00 | 0.00 | 0.00 | 48 | 1003.9 |
| 20260504043107 | 52 | 209 | 4.0 | 9.0 | 0.00 | 0.00 | 0.00 | 47 | 1004.0 |
| 20260504042601 | 52 | 218 | 5.0 | 7.0 | 0.00 | 0.00 | 0.00 | 46 | 1004.0 |
| 20260504042102 | 52 | 222 | 4.0 | 7.0 | 0.00 | 0.00 | 0.00 | 46 | 1004.0 |
| 20260504041607 | 52 | 220 | 4.0 | 7.0 | 0.00 | 0.00 | 0.00 | 46 | 1004.2 |
| 20260504041059 | 52 | 215 | 5.0 | 9.0 | 0.00 | 0.00 | 0.00 | 45 | 1004.4 |
| 20260504040602 | 52 | 212 | 3.0 | 9.0 | 0.00 | 0.00 | 0.00 | 44 | 1004.5 |
| 20260504040104 | 53 | 221 | 3.0 | 6.0 | 0.00 | 0.00 | 0.00 | 44 | 1004.6 |
| 20260504035559 | 53 | 196 | 4.0 | 8.0 | 0.00 | 0.00 | 0.00 | 43 | 1004.6 |
| 20260504035059 | 53 | 209 | 4.0 | 8.0 | 0.00 | 0.00 | 0.00 | 43 | 1004.6 |
| 20260504034618 | 53 | 211 | 5.0 | 8.0 | 0.00 | 0.00 | 0.00 | 42 | 1004.7 |
| 20260504034100 | 53 | 213 | 4.0 | 7.0 | 0.00 | 0.00 | 0.00 | 41 | 1004.8 |
| 20260504033600 | 54 | 243 | 1.0 | 4.0 | 0.00 | 0.00 | 0.00 | 42 | 1004.9 |
| 20260504033104 | 54 | 241 | 1.0 | 5.0 | 0.00 | 0.00 | 0.00 | 41 | 1005.0 |
| 20260504032600 | 54 | 234 | 2.0 | 6.0 | 0.00 | 0.00 | 0.00 | 41 | 1005.0 |
| 20260504032102 | 54 | 217 | 3.0 | 6.0 | 0.00 | 0.00 | 0.00 | 41 | 1005.0 |
| 20260504031604 | 55 | 219 | 3.0 | 5.0 | 0.00 | 0.00 | 0.00 | 40 | 1005.1 |
| 20260504031103 | 55 | 220 | 2.0 | 5.0 | 0.00 | 0.00 | 0.00 | 40 | 1005.3 |
| 20260504030556 | 55 | 227 | 2.0 | 5.0 | 0.00 | 0.00 | 0.00 | 40 | 1005.3 |
| 20260504030110 | 56 | 219 | 3.0 | 5.0 | 0.00 | 0.00 | 0.00 | 40 | 1005.3 |
| 20260504025559 | 56 | 220 | 3.0 | 5.0 | 0.00 | 0.00 | 0.00 | 39 | 1005.4 |
| 20260504025102 | 56 | 221 | 3.0 | 5.0 | 0.00 | 0.00 | 0.00 | 38 | 1005.5 |
| 20260504024558 | 57 | 214 | 3.0 | 5.0 | 0.00 | 0.00 | 0.00 | 38 | 1005.5 |
| 20260504024101 | 57 | 241 | 1.0 | 3.0 | 0.00 | 0.00 | 0.00 | 38 | 1005.6 |
| 20260504023600 | 58 | 230 | 1.0 | 4.0 | 0.00 | 0.00 | 0.00 | 38 | 1005.5 |
| 20260504023059 | 58 | 224 | 1.0 | 7.0 | 0.00 | 0.00 | 0.00 | 37 | 1005.5 |
| 20260504022557 | 58 | 229 | 3.0 | 7.0 | 0.00 | 0.00 | 0.00 | 36 | 1005.5 |
| 20260504022059 | 59 | 221 | 2.0 | 4.0 | 0.00 | 0.00 | 0.00 | 35 | 1005.6 |
| 20260504021600 | 59 | 232 | 2.0 | 4.0 | 0.00 | 0.00 | 0.00 | 35 | 1005.6 |
| 20260504021058 | 60 | 221 | 2.0 | 4.0 | 0.00 | 0.00 | 0.00 | 35 | 1005.7 |
| 20260504020555 | 61 | 236 | 2.0 | 4.0 | 0.00 | 0.00 | 0.00 | 34 | 1005.7 |
| 20260504020109 | 61 | 239 | 2.0 | 4.0 | 0.00 | 0.00 | 0.00 | 34 | 1005.8 |
| 20260504015557 | 62 | 239 | 2.0 | 4.0 | 0.00 | 0.00 | 0.00 | 33 | 1005.8 |
| 20260504015057 | 62 | 230 | 2.0 | 4.0 | 0.00 | 0.00 | 0.00 | 32 | 1005.9 |
| 20260504014605 | 63 | 237 | 2.0 | 6.0 | 0.00 | 0.00 | 0.00 | 31 | 1005.9 |
| 20260504014056 | 63 | 244 | 3.0 | 7.0 | 0.00 | 0.00 | 0.00 | 30 | 1005.9 |
| 20260504013556 | 64 | 254 | 2.0 | 7.0 | 0.00 | 0.00 | 0.00 | 29 | 1006.0 |
| 20260504013107 | 64 | 267 | 3.0 | 7.0 | 0.00 | 0.00 | 0.00 | 29 | 1005.9 |
| 20260504012559 | 65 | 266 | 3.0 | 7.0 | 0.00 | 0.00 | 0.00 | 28 | 1005.9 |
| 20260504012056 | 65 | 240 | 2.0 | 7.0 | 0.00 | 0.00 | 0.00 | 28 | 1005.9 |
| 20260504011600 | 66 | 271 | 3.0 | 8.0 | 0.00 | 0.00 | 0.00 | 27 | 1005.9 |
| 20260504011058 | 66 | 265 | 4.0 | 8.0 | 0.00 | 0.00 | 0.00 | 27 | 1006.0 |
| 20260504010555 | 66 | 258 | 4.0 | 9.0 | 0.00 | 0.00 | 0.00 | 27 | 1005.9 |
| 20260504005556 | 67 | 280 | 3.0 | 11.0 | 0.00 | 0.00 | 0.00 | 26 | 1005.9 |
| 20260504005100 | 67 | 276 | 5.0 | 13.0 | 0.00 | 0.00 | 0.00 | 25 | 1006.0 |
| 20260504004612 | 68 | 272 | 5.0 | 13.0 | 0.00 | 0.00 | 0.00 | 24 | 1006.0 |
| 20260504004055 | 68 | 265 | 6.0 | 13.0 | 0.00 | 0.00 | 0.00 | 24 | 1006.0 |
| 20260504003556 | 68 | 234 | 6.0 | 13.0 | 0.00 | 0.00 | 0.00 | 24 | 1006.0 |
| 20260504003102 | 68 | 294 | 7.0 | 13.0 | 0.00 | 0.00 | 0.00 | 23 | 1006.0 |
| 20260504002600 | 69 | 269 | 6.0 | 14.0 | 0.00 | 0.00 | 0.00 | 23 | 1006.1 |
| 20260504002056 | 69 | 242 | 7.0 | 14.0 | 0.00 | 0.00 | 0.00 | 24 | 1006.1 |
| 20260504001602 | 69 | 242 | 5.0 | 13.0 | 0.00 | 0.00 | 0.00 | 24 | 1006.1 |
| 20260504001056 | 69 | 281 | 6.0 | 15.0 | 0.00 | 0.00 | 0.00 | 24 | 1006.1 |
| 20260504000555 | 69 | 274 | 8.0 | 15.0 | 0.00 | 0.00 | 0.00 | 23 | 1006.2 |
| 20260504000106 | 69 | 257 | 7.0 | 13.0 | 0.00 | 0.00 | 0.00 | 23 | 1006.3 |
| 20260503235556 | 69 | 278 | 5.0 | 13.0 | 0.00 | 0.00 | 0.00 | 24 | 1006.4 |
| 20260503235057 | 69 | 252 | 7.0 | 13.0 | 0.00 | 0.00 | 0.00 | 24 | 1006.4 |
| 20260503234603 | 69 | 285 | 6.0 | 15.0 | 0.00 | 0.00 | 0.00 | 24 | 1006.5 |
| 20260503234058 | 69 | 288 | 5.0 | 15.0 | 0.00 | 0.00 | 0.00 | 25 | 1006.7 |
| 20260503233600 | 69 | 263 | 6.0 | 15.0 | 0.00 | 0.00 | 0.00 | 25 | 1006.8 |
| 20260503233110 | 69 | 259 | 7.0 | 15.0 | 0.00 | 0.00 | 0.00 | 25 | 1006.8 |
| 20260503232558 | 69 | 250 | 6.0 | 15.0 | 0.00 | 0.00 | 0.00 | 26 | 1006.8 |
| 20260503232057 | 69 | 246 | 6.0 | 16.0 | 0.00 | 0.00 | 0.00 | 27 | 1007.0 |